Yakima, WA

11:06 AM PDT on June 28, 2017 (GMT -0700)
Yakima Air Term-McAllister

Weather History for KYKM - February, 2014

Change the Weather History Date:

Friday, February 14, 2014

  Actual Average Record
Temperature  
Mean Temperature 44 °F 36 °F  
Max Temperature 53 °F 46 °F 67 °F (2015)
Min Temperature 34 °F 26 °F 5 °F (1949)
Degree Days  
Heating Degree Days 21 29  
Month to date heating degree days 530 423  
Since 1 July heating degree days 4036 4141  
Cooling Degree Days 0 0  
Month to date cooling degree days 0 0  
Year to date cooling degree days 0 0  
Moisture  
Dew Point 33 °F    
Average Humidity 73    
Maximum Humidity 92    
Minimum Humidity 54    
Precipitation  
Precipitation 0.20 in 0.02 in 0.35 in (1986)
Month to date precipitation 1.09 0.40  
Year to date precipitation 1.39 1.54  
Snow  
Snow 0.00 in 0.10 in 3.10 in (1986)
Month to date snowfall 17.6 1.5  
Year to date snowfall 18.1 6.8  
Since 1 July snowfall 18.1 19.8  
Snow Depth T in    
Sea Level Pressure  
Sea Level Pressure 29.83 in    
Wind  
Wind Speed 5 mph (WSW)    
Max Wind Speed 21 mph    
Max Gust Speed 28 mph    
Visibility 9 miles    
Events Rain    
T = Trace of Precipitation, MM = Missing Value Source: NWS Daily Summary

Daily Weather History Graph

Daily Weather History Graph

Search for Another Location

Airport or City:

Trip Planner

Search our weather history database for the weather conditions in past years. The results will help you decide how hot, cold, wet, or windy it might be!

Date:

Astronomy

Feb. 14, 2014 Rise Set
Actual Time 7:07 AM PST 5:26 PM PST
Civil Twilight 6:36 AM PST 5:57 PM PST
Nautical Twilight 6:00 AM PST 6:32 PM PST
Astronomical Twilight 5:25 AM PST 7:07 PM PST
Moon 5:38 PM PST (2/14) 6:34 AM PST (2/14)
Length of Visible Light 11h 21m
Length of Day
10h 18m
Full, 100% of the Moon is Illuminated
Feb 14
Full
Feb 14
Full
Feb 22
Last Quarter
Mar 1
New
Mar 8
First Quarter

Hourly Weather History & Observations

Time (PST) Temp. Windchill Dew Point Humidity Pressure Visibility Wind Dir Wind Speed Gust Speed Precip Events Conditions
12:53 AM 37.9 °F - 28.9 °F 70% 29.91 in 10.0 mi Calm Calm - N/A   Overcast
1:53 AM 36.0 °F 33.3 °F 30.9 °F 82% 29.88 in 6.0 mi SW 3.5 mph - 0.01 in Rain Light Rain
2:09 AM 36.0 °F 33.3 °F 32.0 °F 86% 29.86 in 5.0 mi West 3.5 mph - 0.02 in Rain Rain
2:53 AM 35.1 °F 31.0 °F 32.0 °F 89% 29.85 in 4.0 mi WSW 4.6 mph - 0.10 in Rain Light Rain
3:53 AM 35.1 °F 31.0 °F 33.1 °F 92% 29.82 in 7.0 mi WSW 4.6 mph - 0.07 in Rain Light Rain
4:41 AM 35.1 °F 30.1 °F 33.1 °F 92% 29.76 in 9.0 mi WSW 5.8 mph - 0.01 in Rain Light Rain
4:53 AM 35.1 °F 29.3 °F 33.1 °F 92% 29.79 in 10.0 mi WSW 6.9 mph - 0.02 in Rain Light Rain
5:53 AM 35.1 °F 29.3 °F 33.1 °F 92% 29.77 in 10.0 mi West 6.9 mph - 0.00 in Rain Light Rain
6:05 AM 35.1 °F 31.0 °F 33.1 °F 92% 29.74 in 10.0 mi West 4.6 mph - 0.00 in Rain Light Rain
6:12 AM 35.1 °F 30.1 °F 33.1 °F 92% 29.75 in 10.0 mi West 5.8 mph - 0.00 in Rain Light Rain
6:53 AM 35.1 °F - 33.1 °F 92% 29.75 in 10.0 mi Calm Calm - 0.00 in   Mostly Cloudy
7:06 AM 35.1 °F - 33.1 °F 92% 29.72 in 10.0 mi Calm Calm - N/A   Mostly Cloudy
7:53 AM 35.1 °F 32.2 °F 33.1 °F 92% 29.76 in 6.0 mi SE 3.5 mph - N/A   Overcast
8:53 AM 37.0 °F - 33.1 °F 86% 29.76 in 9.0 mi Calm Calm - N/A   Mostly Cloudy
9:00 AM 36.0 °F 32.1 °F 33.1 °F 89% 29.74 in 10.0 mi NNW 4.6 mph - N/A   Mostly Cloudy
9:53 AM 37.9 °F 30.0 °F 34.0 °F 86% 29.78 in 10.0 mi South 12.7 mph - N/A   Mostly Cloudy
10:00 AM 39.9 °F 36.7 °F 35.1 °F 83% 29.76 in 10.0 mi North 4.6 mph - N/A   Partly Cloudy
10:53 AM 46.0 °F - 37.9 °F 73% 29.81 in 10.0 mi Calm Calm - N/A   Clear
11:53 AM 45.0 °F 42.6 °F 37.9 °F 76% 29.81 in 10.0 mi West 4.6 mph - N/A   Clear
12:53 PM 52.0 °F - 37.0 °F 57% 29.80 in 10.0 mi Calm Calm - N/A   Clear
1:53 PM 52.0 °F - 37.0 °F 57% 29.82 in 10.0 mi SW 13.8 mph 25.3 mph N/A   Partly Cloudy
2:53 PM 51.1 °F - 35.1 °F 54% 29.84 in 10.0 mi West 13.8 mph 25.3 mph N/A   Scattered Clouds
3:53 PM 51.1 °F - 36.0 °F 56% 29.86 in 10.0 mi WSW 6.9 mph - N/A   Scattered Clouds
4:53 PM 48.0 °F - 34.0 °F 58% 29.89 in 10.0 mi WSW 6.9 mph - N/A   Clear
5:53 PM 42.1 °F 40.2 °F 33.1 °F 70% 29.92 in 10.0 mi SSW 3.5 mph - N/A   Partly Cloudy
6:53 PM 39.0 °F 35.7 °F 32.0 °F 76% 29.95 in 10.0 mi SW 4.6 mph - N/A   Scattered Clouds
7:53 PM 37.9 °F 32.1 °F 30.9 °F 76% 29.94 in 10.0 mi WSW 8.1 mph - N/A   Clear
8:53 PM 37.9 °F 31.5 °F 30.9 °F 76% 29.92 in 10.0 mi WSW 9.2 mph - N/A   Clear
9:53 PM 37.9 °F 35.5 °F 30.9 °F 76% 29.94 in 10.0 mi SE 3.5 mph - N/A   Clear
10:53 PM 37.0 °F - 30.9 °F 79% 29.95 in 10.0 mi Calm Calm - N/A   Clear
11:53 PM 39.0 °F 36.8 °F 32.0 °F 76% 29.96 in 10.0 mi NE 3.5 mph - N/A   Clear